Location: Newark
(13.0328°N, 9.6142°E)
Time: 10:42:14
(UTC+00:00)

Envisat - Pass Details

Date: 24 October 2019
Orbit: 764 x 766 km, 98.1° (Epoch: 12 November)

Event Time Altitude Azimuth Distance (km) Brightness Sun altitude
Rises 18:11:16 0° 182° (S) 3,221 6.4 -18.4°
Reaches altitude 10° 18:13:41 10° 189° (S) 2,296 5.7 -18.9°
Maximum altitude 18:18:26 42° 259° (W) 1,088 4.3 -20.1°
Drops below altitude 10° 18:23:12 10° 330° (NNW) 2,296 5.7 -21.2°
Sets 18:25:37 0° 337° (NNW) 3,222 6.4 -21.8°
